Regional Weather Roundup
Issued by NWS

Home | Current Version | Previous Version | Graphics & Text | Print | Product List | Glossary On
Versions: 1 2 3 4 5 6 7 8 9 10 11 12 13 14 15 16 17 18 19 20 21 22 23 24 25 26 27 28 29 30 31 32 33 34 35 36 37 38 39 40 41 42 43 44 45 46 47 48 49 50
000
ASUS43 KLOT 270010
RWRIL

ILLINOIS REGIONAL WEATHER ROUNDUP
NATIONAL WEATHER SERVICE CHICAGO/ROMEOVILLE IL
600 PM CST THU FEB 26 2015

NOTE: "FAIR" INDICATES FEW OR NO CLOUDS BELOW 12,000 FEET WITH NO
SIGNIFICANT WEATHER AND/OR OBSTRUCTIONS TO VISIBILITY.

* THESE STATIONS ARE NOT UNDER NWS QUALITY CONTROL. THEY ALSO MAY NOT
  REPORT WEATHER SUCH AS PRECIPITATION OR FOG.

ILZ001-002-007-009-015-016-024-270100-
NORTHWEST ILLINOIS

CITY           SKY/WX    TMP DP  RH WIND       PRES   REMARKS
MOLINE         CLEAR      9  -3  58 NW15      30.41R WCI  -8
6HR MIN TEMP:   9; 6HR MAX TEMP:  15;

STERLING*      CLEAR      9  -2  61 NW7       30.38R WCI  -3
SAVANNA*       CLEAR     10  -7  46 N5        30.40R WCI   2
$$

ILZ003-004-008-010-011-017-018-270100-
NORTH CENTRAL ILLINOIS

CITY           SKY/WX    TMP DP  RH WIND       PRES   REMARKS
ROCKFORD       CLEAR     10  -5  50 N7        30.38R WCI  -1
6HR MIN TEMP:  10; 6HR MAX TEMP:  14;

FREEPORT*      CLEAR      7  -6  55 CALM      30.38R
ROCHELLE*      CLEAR      7  -3  62 NW3       30.37R
DE KALB*       CLEAR      6  -5  62 N8        30.34R WCI  -7
PERU*          CLOUDY    13   2  61 NW12      30.38R WCI  -1
$$

ILZ005-006-012>014-019>023-270100-
NORTHEAST ILLINOIS

CITY           SKY/WX    TMP DP  RH WIND       PRES   REMARKS
CHICAGO-OHARE  PTCLDY    11  -4  51 NW10      30.32R WCI  -3
6HR MIN TEMP:  10; 6HR MAX TEMP:  19; 6HR PCP: TRACE;

CHICAGO-MIDWAY PTCLDY    16   0  49 NW12      30.33R WCI   3
6HR MIN TEMP:  16; 6HR MAX TEMP:  21; 6HR PCP: TRACE;

AURORA         CLEAR      6  -4  63 NW9       30.35R WCI  -8
6HR MIN TEMP:   6; 6HR MAX TEMP:  18;

LANSING*       CLEAR     15   3  60 N5        30.31R WCI   7
JOLIET*        CLEAR     12   0  60 NW7       30.35R WCI   1
WAUKEGAN       CLEAR     10  -6  48 NW5       30.33R WCI   2
6HR MIN TEMP:  10; 6HR MAX TEMP:  17;

DUPAGE AIRPORT CLEAR     10  -2  58 NW10      30.33R WCI  -4
6HR MIN TEMP:  10; 6HR MAX TEMP:  19; 6HR PCP: TRACE;

KANKAKEE*      MOCLDY    16   3  58 NW7       30.33R WCI   6
WHEELING       CLEAR     12  -4  48 NW10      30.35R WCI  -1
6HR MIN TEMP:  12; 6HR MAX TEMP:  19; 6HR PCP: TRACE;

MORRIS*        CLEAR      9   0  67 NW7       30.35R WCI  -2
ROMEOVILLE*    CLEAR     11  -1  57 NW7       30.34R WCI   1
NORTHERLY ISL    N/A     14   2  58 N9          N/A  WCI   2
$$

LMZ740>746-270100-
SOUTHERN LAKE MICHIGAN

STATION/POSITION SKY/WX   TEMP    WIND        PRES    VSBY  WAVE
                          AIR SEA DIR/SP/G                  HT/PER
                          (F)     (DEG/KT/KT) (MB)    (MI)  (FT/S)
WAUKEGAN HARBOR            13     320/  7/ 11   N/A
HARRISON CRIB              16     320/ 14/ 16   N/A
BURNHAM HARBOR             15     340/  5/ 14   N/A
CALUMET HARBOR             15     320/  6/ 10 1025.3R
MICHIGAN CITY              16     360/ 14/ 17   N/A
$$

ILZ025>027-034>036-040-047-049-050-058-095>099-270100-
WEST-CENTRAL ILLINOIS

CITY           SKY/WX    TMP DP  RH WIND       PRES   REMARKS
QUINCY         CLEAR      9  -3  58 NW13      30.43R WCI  -7
GALESBURG*     CLEAR      7  -1  69 NW6       30.40R WCI  -3
MACOMB*        CLEAR      6   0  75 NW12      30.44R WCI -10
JACKSONVILLE*  PTCLDY    14   3  63 NW12      30.40R WCI   0
PITTSFIELD*    PTCLDY    13   1  58 NW12      30.43R WCI  -1
$$

ILZ028>032-037-038-041>044-048-051>054-059>061-270100-
CENTRAL ILLINOIS

CITY           SKY/WX    TMP DP  RH WIND       PRES   REMARKS
PONTIAC        MOCLDY    13   4  67 N12       30.36R WCI   0
BLOOMINGTON    PTCLDY    11   4  73 NW12      30.35R WCI  -3
DECATUR        CLOUDY    17  12  80 N10       30.34R HAZE    WCI   5
PEORIA         CLOUDY    13   5  70 N5        30.40R HAZE    WCI   5
6HR MIN TEMP:  13; 6HR MAX TEMP:  20; 6HR PCP: TRACE;

LACON*         CLOUDY    11   3  68 N12       30.39R WCI  -3
LINCOLN*       FLURRIES  16   9  72 N7        30.40R WCI   7
SPRINGFIELD    LGT SNOW  16   8  71 NW15      30.38R WCI   1
6HR MIN TEMP:  16; 6HR MAX TEMP:  21; 6HR PCP: TRACE;

TAYLORVILLE    LGT SNOW  18  12  79 NW10      30.36R WCI   6
$$

ILZ033-039-045-046-055>057-062-063-270100-
EAST-CENTRAL ILLINOIS

CITY           SKY/WX    TMP DP  RH WIND       PRES   REMARKS
CHAMPAIGN      CLOUDY    16  10  77 N9        30.32R WCI   4
DANVILLE*      CLEAR     11   6  79 N6        30.28R WCI   2
RANTOUL*       MOCLDY    18  10  71 N8        30.32R WCI   8
MATTOON        CLOUDY    17   9  70 N10       30.31R WCI   5
PARIS*         CLOUDY    17   9  70 N7        30.32R WCI   8
$$

ILZ079-100>102-270100-
SOUTHWEST ILLINOIS

CITY           SKY/WX    TMP DP  RH WIND       PRES   REMARKS
ALTON          CLOUDY    19  10  68 NW16      30.36S WCI   5
BELLEVILLE     FLURRIES  20  12  69 NW15      30.38R WCI   7
CAHOKIA*       LGT SNOW  20  12  71 N15       30.40R WCI   6
SPARTA*        FLURRIES  21  15  78 N10       30.37R WCI   9
$$

ILZ064>066-069>071-074>076-080>082-084>086-088>090-092>094-270100-
SOUTH-CENTRAL ILLINOIS

CITY           SKY/WX    TMP DP  RH WIND       PRES   REMARKS
CARBONDALE     LGT SNOW  23  15  71 N14       30.36R WCI  11
6HR MIN TEMP:  23; 6HR MAX TEMP:  26; 6HR PCP: TRACE;

CAIRO*         CLOUDY    29  18  63 N9        30.33R WCI  20
EFFINGHAM*     CLOUDY    20   9  61 NW10      30.35R WCI   9
MARION         LGT SNOW  25  16  68 N12G18    30.35R WCI  14
MT. VERNON     MOCLDY    21  10  63 N5        30.34R WCI  15
CENTRALIA*     FLURRIES  21  15  76 NW12G17   30.35R WCI   9
SALEM*         LGT SNOW  22  16  77 NW10      30.35R WCI  12
METROPOLIS*    CLOUDY    27  19  72 N12       30.30R WCI  16
$$

ILZ067-068-072-073-078-083-087-091-270100-
SOUTHEAST ILLINOIS

CITY           SKY/WX    TMP DP  RH WIND       PRES   REMARKS
LAWRENCEVILLE  PTCLDY    22  12  65 NW16      30.32R WCI   8
FLORA*         LGT SNOW  21  17  82 N10       30.34R WCI  10
FAIRFIELD*     CLOUDY    24  16  71 NW9       30.32R WCI  14
HARRISBURG*    FLURRIES  25  17  71 N14G20    30.34R WCI  13
ROBINSON*      PTCLDY    20  12  71 NW8       30.33R WCI  11
CARMI*         CLOUDY    26  18  72 NW13      30.31R WCI  15
$$

ABBREVIATIONS USED IN REMARKS
   TC - TEMPERATURE IN CELSIUS
  WCI - WIND CHILL INDEX
   HX - HEAT INDEX
  VSB - VISIBILITY
$$




USA.gov is the U.S. government's official web portal to all federal, state and local government web resources and services.